Showing default

COSMOS 1690, 16138

Orbit data source: Space-Track

COSMOS 1690, 16138 is a payload satellite owned by GUKOS (CIS) in LEO that was launched on Wed, 09 Oct 1985 UTC via a TSIKLON-3 launch vehicle from the Plesetsk Missile And Space Complex (PKMTR). Payload-class satellites include a variety of spacecraft equipped with specific instruments for various scientific and technological missions. These include communications satellites like Starlink; space stations such as the ISS; scientific satellites like the Hubble; Earth observation satellites from companies like Planet Labs, Umbra, and HawkEye 360; GPS; miniature CubeSats for education and research; and military/defense satellites.

Loading next visibility...
Identifier
16138, 1985-094A
Orbit
LEO
Country
Flag of CISCIS
Related business
Manufacturer
NPO PM
Mission
Spacecraft
Bus & Motor
STRELA-3, Unknown motor
Mass
225 kg wet, 225 kg dry
Launch date (UTC)
1985-10-09 (41 years ago)
Launch vehicle
TSIKLON-3
Launch site
Plesetsk Missile And Space Complex (PKMTR)
Object type
Payload
Rocket body
Debris
Shape & HBR
Unknown
Radar Cross Section
Large (>1 m²)

Expand to show TLE details & history
Last TLE update: 5 hours ago

TLE from 5 hours ago
0 COSMOS 1690
1 16138U 85094A   26127.27137625  .00000044  00000-0  17706-3 0  9998
2 16138  82.6073 247.2434 0021992  30.7041 353.8947 12.66105453874811
Epoch: 2026-05-07T06:30Z
TLE epoch observation values (Epoch: 2026-05-07T06:30:46.908Z)
Latitude
24.37793°
Longitude
-72.21798°
Altitude
1,383.645 km
Speed
7.177 km/s
True Right ascension
16h 42m 23s
True Declination
24° 15' 34"
Sunlit
Object was in full shadow at epoch
Visualization orbit readout
Latitude
Unknown
Longitude
Unknown
Altitude
Unknown
Speed
Unknown
Apparent Right ascension
Unknown
Apparent Declination
Unknown
Sunlit
N/A
Visualization observer readout
Local Sidereal Time
19:53:10
Azimuth
Unknown
Elevation
Unknown
Doppler factor
Unknown
Orbital elements
Apogee altitude
1,412.254 km
Perigee altitude
1,378.064 km
Semi-major axis
7,773.296 km
Eccentricity
0.0022
Inclination
82.6073°
RAAN
247.2434°
Arg. of periapsis
30.7041°
True anomaly
353.86782°
Mean anomaly
353.8947°
Eccentric anomaly
353.88127°
Mean motion
3.16691 °/min
Orbital period
113.68 mins
BSTAR
0.00017706
Loading maneuver chart data...
Computing Atmospheric mass density...
Loading historical data...
Loading historical data...
Loading historical data...
Loading historical data...
Loading historical data...
Loading historical data...
Loading historical data...

Documentation

Showing up to 5 results
|